User: anonymous   Login
Location: Unspecified
(0.0000°N, 0.0000°E)
Time: 11:51:51
(UTC+00:00)
Language:

UFO F6 - Orbit

View from above orbital plane
View from above orbital plane
View from above satellite
View from above satellite

Ground track
Ground track

The orbit data is extracted from the following two-line orbital elements,

1 23696U 95057A   17279.30691397 0.00000000  00000-0  00000-0 0    09
2 23696   9.1165  29.2516 0004011 151.6656 208.3682  0.98758352    07
Epoch (UTC): 06 October 2017 07:21:57
Eccentricity: 0.0004011
inclination: 9.1165°
perigee height: 36199 km
apogee height: 36233 km
right ascension of ascending node: 29.2516°
argument of perigee: 151.6656°
revolutions per day: 0.98758352
mean anomaly at epoch: 208.3682°
orbit number at epoch: 0

The dashed part of the orbit path shows where the satellite is in the earth's shadow,  

DLR